This is the latest recevied weather packets stored in our database for station/object KA9CBS. If no packets are shown the sender has not sent any weather packets the latest 10 day(s).
| Time | Temp. | Humidity | Pressure | Rain* | Wind** | Luminosity | Snow |
|---|---|---|---|---|---|---|---|
| 1787436654 | 27.78° C | 61% | 1017.2 hPa | 0 mm | - | 91 W/m² | - |
| 1787436349 | 27.78° C | 60% | 1017.1 hPa | 0 mm | - | 185 W/m² | - |
| 1787436043 | 28.33° C | 63% | 1016.9 hPa | 0 mm | - | 161 W/m² | - |
| 1787435738 | 27.78° C | 64% | 1017.2 hPa | 0 mm | - | 361 W/m² | - |
| 1787435434 | 28.33° C | 64% | 1017 hPa | 0 mm | - | 92 W/m² | - |
| 1787435131 | 28.33° C | 66% | 1017 hPa | 0 mm | - | 76 W/m² | - |
| 1787434821 | 28.33° C | 65% | 1017.3 hPa | 0 mm | - | 172 W/m² | - |
| 1787434518 | 28.33° C | 64% | 1017 hPa | 0 mm | - | 87 W/m² | - |
| 1787434213 | 27.78° C | 65% | 1017.1 hPa | 0 mm | - | 91 W/m² | - |
| 1787433909 | 28.33° C | 62% | 1017.2 hPa | 0 mm | - | 84 W/m² | - |
| 1787433609 | 28.33° C | 63% | 1017.3 hPa | 0 mm | - | 100 W/m² | - |
| 1787433304 | 28.33° C | 63% | 1017.3 hPa | 0 mm | - | 101 W/m² | - |
| 1787433001 | 28.33° C | 60% | 1017.3 hPa | 0 mm | - | 97 W/m² | - |
| 1787432697 | 28.33° C | 62% | 1017.3 hPa | 0 mm | - | 204 W/m² | - |
| 1787432396 | 28.89° C | 58% | 1017.4 hPa | 0 mm | - | 469 W/m² | - |
| 1787432091 | 28.33° C | 61% | 1017.4 hPa | 0 mm | - | 524 W/m² | - |
| 1787431790 | 28.33° C | 61% | 1017.3 hPa | 0 mm | - | 548 W/m² | - |
| 1787431485 | 28.33° C | 61% | 1017.4 hPa | 0 mm | - | 575 W/m² | - |
| 1787431182 | 28.33° C | 60% | 1017.7 hPa | 0 mm | - | 577 W/m² | - |
| 1787430878 | 28.33° C | 60% | 1017.7 hPa | 0 mm | - | 587 W/m² | - |
| 1787430577 | 28.33° C | 61% | 1017.9 hPa | 0 mm | - | 570 W/m² | - |
| 1787430275 | 28.89° C | 62% | 1017.9 hPa | 0 mm | - | 599 W/m² | - |
| 1787429971 | 28.89° C | 63% | 1017.8 hPa | 0 mm | - | 619 W/m² | - |
| 1787429666 | 28.33° C | 64% | 1018 hPa | 0 mm | - | 623 W/m² | - |
| 1787429361 | 28.33° C | 62% | 1018 hPa | 0 mm | - | 606 W/m² | - |
* Rain latest hour (hover to see other rain measurements)
** Current wind speed in m/s (hover to see current wind gust speed)